Regional Weather Roundup
Issued by NWS Newport/Morehead, NC

Current Version | Previous Version | Text Only | Print | Product List | Glossary On
Versions: 1 2 3 4 5 6 7 8 9 10 11 12 13 14 15 16 17 18 19 20 21 22 23 24 25 26 27 28 29 30 31 32 33 34 35 36 37 38 39 40 41 42 43 44 45 46 47 48 49 50
000 ASUS42 KMHX 220722 RWRMHX WEATHER ROUNDUP FOR EASTERN NORTH CAROLINA NATIONAL WEATHER SERVICE NEWPORT/MOREHEAD CITY NC 300 AM EDT MON SEP 22 2014 NOTE: "FAIR" INDICATES FEW OR NO CLOUDS BELOW 12,000 FEET WITH NO SIGNIFICANT WEATHER AND/OR OBSTRUCTIONS TO VISIBILITY NCZ015>017-031-032-045>047-102-103-220800- NORTH COAST CITY SKY/WX TMP DP RH WIND PRES REMARKS EDENTON MOCLDY 73 66 78 W6 29.85R ELIZABETH CITY CLEAR 73 65 75 W13 29.83R KITTY HAWK SUNNY 75 65 71 SW9 29.82S MANTEO CLEAR 74 66 76 SW9 29.84R $$ NCZ045>047-081-094-103-104-220800- CENTRAL COAST CITY SKY/WX TMP DP RH WIND PRES REMARKS FRISCO CLEAR 75 72 90 W14G21 29.86F SWANQUARTER N/A 75 N/A N/A SW9 29.82S $$ NCZ095-097-098-100-101-220800- SOUTHERN COAST CITY SKY/WX TMP DP RH WIND PRES REMARKS BEAUFORT CLEAR 79 71 76 SW15 29.88S CEDAR ISLAND N/A 75 N/A N/A S3G12 29.91S JACKSONVILLE CLEAR 72 66 81 SW7 29.87F NEWPORT NOT AVBL PINEY ISLAND SUNNY 77 68 73 SW9 29.87S WILMINGTON CLEAR 74 66 76 SW12 29.89F $$ NCZ011>013-027>030-043-044-078>080-089-090>093-098-220800- COASTAL PLAIN CITY SKY/WX TMP DP RH WIND PRES REMARKS AHOSKIE PTCLDY 69 66 91 CALM 29.85S CLINTON CLOUDY 72 67 85 CALM 29.88S ELIZABETHTOWN PTCLDY 72 64 77 SW6 29.89S GOLDSBORO PTCLDY 74 70 88 CALM 29.85R GREENVILLE PTCLDY 72 66 83 CALM 29.88S HAVELOCK CLEAR 73 66 78 SW7 29.88F KENANSVILLE CLOUDY 73 64 71 SW8 29.88R KINSTON CLEAR 73 65 77 W5 29.87R NEW BERN CLEAR 72 65 78 SW6 29.87F RICHLANDS CLEAR 70 63 78 SW6 29.87S ROANOKE RAPIDS NOT AVBL ROCKY MOUNT PTCLDY 71 67 87 W3 29.86R WASHINGTON MOCLDY 70 65 86 CALM 29.86R WHITEVILLE CLEAR 73 64 74 SW6 29.89F $$ AMZ130-135-150-152-154-156-158-170-250-252-270-ANZ085-086-088-633-658-670-220800- MARINE OBSERVATIONS STATION/POSITION TIME TEMP WIND PRES WAVE SWELL AIR SEA DIR/SP/G HT/PER HT/PER (UTC) (F) (DEG/KT/KT) (MB) (FT/S) (FT/S) CHESAPEAKE LIGHT 0700 75 260/ 19/ 21 1009.5 BUOY 44014 0700 75 74 240/ 17/ 21 1008.5 6/10 5/10 DUCK 0700 75 74 240/ 16/ 20 1009.4 2E DUCK 0700 N/A 3/11 2/11 OREGON INLET 0700 74 76 220/ 11/ 12 1010.4 BUOY 44095 0700 74 N/A 5/ 9 2/11 20E OREGON INLET NOT AVBL HATTERAS CG NOT AVBL DIAMOND BUOY 0700 81 240/ 23/ 29 1010.9 7/ 6 3/ 9 CAPE LOOKOUT 0700 79 240/ 12/ 17 1011.6 BEAUFORT LAB 0700 78 75 240/ 7/ 11 1011.2 30 SE NEW RIVER 0700 81 82 240/ 21/ 27 1011.3 5/ 5 2/ 8 5 SE WRIGHTSVILL 0700 75 79 250/ 16/ 19 N/A BUOY 41002 0633 80 81 260/ 14/ 16 1015.4 6/ 7 BUOY 41004 0700 82 81 230/ 17/ 19 1013.6 4/ 5 2/ 9 $$

USA.gov is the U.S. government's official web portal to all federal, state and local government web resources and services.